Volver al catálogo

STARLINK-38259

ActivoComunicacionesSSO
NORAD 100252·PAYLOAD·🇺🇸 United States

Lanzado Aug 8, 2026 desde Vandenberg Space Force Base

Loading…

Próximos Pases (próximas 24 horas)

TLE

ActualizadoSource: Space-Track

Época: Sep 14, 2026, 13:20 UTC

1 A0252U 26181G   26257.55603167  .00250433  00000-0  16278-2 0  9995
2 A0252  97.2833 300.8408 0000526   7.7441 352.3832 15.75236588  6970

Sigue STARLINK-38259 en tiempo real con AllMySat

Download on the App Store